Chapel Hill, NC

7:01 AM EDT on March 25, 2017 (GMT -0400)
Williams

Weather History for KIGX - January, 2014

Change the Weather History Date:

Monday, January 27, 2014

  Actual Average Record
Temperature  
Mean Temperature 49 °F -  
Max Temperature 64 °F 49 °F 76 °F (1950)
Min Temperature 32 °F 26 °F 10 °F (1982)
Degree Days  
Heating Degree Days 16    
Moisture  
Dew Point 27 °F    
Average Humidity 44    
Maximum Humidity 63    
Minimum Humidity 23    
Precipitation  
Precipitation 0.00 in - - ()
Sea Level Pressure  
Sea Level Pressure 29.87 in    
Wind  
Wind Speed 4 mph (NW)    
Max Wind Speed 13 mph    
Max Gust Speed 20 mph    
Visibility 10 miles    
Events      
Averages and records for this station are not official NWS values.
T = Trace of Precipitation, MM = Missing Value Source: NWS Daily Summary

Daily Weather History Graph

Daily Weather History Graph

Search for Another Location

Airport or City:

Trip Planner

Search our weather history database for the weather conditions in past years. The results will help you decide how hot, cold, wet, or windy it might be!

Date:

Astronomy

Jan. 27, 2014 Rise Set
Actual Time 7:20 AM EST 5:38 PM EST
Civil Twilight 6:53 AM EST 6:05 PM EST
Nautical Twilight 6:22 AM EST 6:36 PM EST
Astronomical Twilight 5:51 AM EST 7:06 PM EST
Moon 3:58 AM EST (1/27) 2:23 PM EST (1/27)
Length of Visible Light 11h 12m
Length of Day
10h 17m
Waning Crescent, 15% of the Moon is Illuminated
Jan 27
Waning Crescent
Jan 30
New
Feb 6
First Quarter
Feb 14
Full
Feb 22
Last Quarter

Hourly Weather History & Observations

Time (EST) Temp. Windchill Dew Point Humidity Pressure Visibility Wind Dir Wind Speed Gust Speed Precip Events Conditions
12:56 AM 43.0 °F 41.3 °F 27.0 °F 53% 29.84 in 10.0 mi Variable 3.5 mph - N/A   Clear
1:56 AM 39.0 °F - 27.0 °F 62% 29.84 in 10.0 mi Calm Calm - N/A   Clear
2:56 AM 39.9 °F - 28.0 °F 63% 29.83 in 10.0 mi Calm Calm - N/A   Clear
3:56 AM 42.1 °F - 28.0 °F 58% 29.84 in 10.0 mi Calm Calm - N/A   Clear
4:56 AM 42.1 °F - 28.0 °F 58% 29.83 in 10.0 mi Calm Calm - N/A   Clear
5:56 AM 44.1 °F 42.5 °F 28.9 °F 55% 29.82 in 10.0 mi Variable 3.5 mph - N/A   Mostly Cloudy
6:56 AM 45.0 °F - 28.9 °F 53% 29.82 in 10.0 mi Calm Calm - N/A   Clear
7:56 AM 46.0 °F 43.9 °F 28.9 °F 51% 29.84 in 10.0 mi SW 4.6 mph - N/A   Mostly Cloudy
8:56 AM 46.9 °F - 30.0 °F 52% 29.84 in 10.0 mi Variable 3.5 mph - N/A   Clear
9:56 AM 53.1 °F - 30.0 °F 41% 29.84 in 10.0 mi Variable 5.8 mph - N/A   Clear
10:56 AM 57.0 °F - 30.9 °F 37% 29.84 in 10.0 mi Variable 5.8 mph - N/A   Clear
11:56 AM 59.0 °F - 30.9 °F 35% 29.81 in 10.0 mi Calm Calm - N/A   Clear
12:56 PM 62.1 °F - 32.0 °F 32% 29.79 in 10.0 mi Variable 4.6 mph - N/A   Clear
1:56 PM 63.0 °F - 33.1 °F 33% 29.78 in 10.0 mi Variable 5.8 mph - N/A   Partly Cloudy
2:56 PM 64.0 °F - 33.1 °F 31% 29.77 in 10.0 mi West 8.1 mph - N/A   Clear
3:56 PM 64.0 °F - 32.0 °F 30% 29.78 in 10.0 mi West 8.1 mph - N/A   Clear
4:56 PM 60.1 °F - 34.0 °F 38% 29.82 in 10.0 mi NW 8.1 mph - N/A   Scattered Clouds
5:56 PM 55.0 °F - 34.0 °F 45% 29.85 in 10.0 mi NW 4.6 mph - N/A   Scattered Clouds
6:56 PM 52.0 °F - 34.0 °F 50% 29.89 in 10.0 mi NNW 9.2 mph - N/A   Mostly Cloudy
7:56 PM 43.0 °F 36.4 °F 25.0 °F 49% 29.96 in 10.0 mi NNW 12.7 mph 19.6 mph N/A   Mostly Cloudy
8:56 PM 39.0 °F 32.3 °F 21.9 °F 50% 30.00 in 10.0 mi NNW 10.4 mph 17.3 mph N/A   Partly Cloudy
9:56 PM 36.0 °F 30.3 °F 14.0 °F 41% 30.05 in 10.0 mi Variable 6.9 mph - N/A   Clear
10:56 PM 34.0 °F 28.8 °F 1.9 °F 26% 30.10 in 10.0 mi Variable 5.8 mph - N/A   Clear
11:56 PM 32.0 °F 24.8 °F -2.0 °F 23% 30.12 in 10.0 mi NNW 8.1 mph - N/A   Clear